Retour au catalogue

STARLINK-32321

ActifCommunicationsVLEO
NORAD 61065·PAYLOAD·🇺🇸 United States

Lancé Sep 13, 2024 depuis Vandenberg Space Force Base

Loading…

Prochains Passages (prochaines 24 heures)

TLE

FraisSource: CelesTrak SupGP

Époque: Sep 14, 2026, 21:25 UTC

1 61065C 24164R   26257.89284722  .00029776  00000+0  88002-3 0  2577
2 61065  53.1593 291.7129 0001188  94.1128 263.9716 15.34365436    15

Suivez STARLINK-32321 en temps réel avec AllMySat

Download on the App Store